485  
ASUS46 KPDT 311310  
RWRPDT  
PENDLETON REGIONAL WEATHER ROUNDUP  
NATIONAL WEATHER SERVICE PENDLETON OREGON  
600 AM PDT FRI JUL 31 2015  
 
NOTE: FAIR INDICATES FEW OR NO CLOUDS BELOW 12,000 FEET WITH NO  
SIGNIFICANT WEATHER AND/OR S TO VISIBILITY
.  
 
# INDICATES UNOFFICIAL STATION AND DATA  
 
WAZ520-311410-  
EAST SLOPES OF WASHINGTON CASCADES  
 
CITY SKY/WX TMP DP RH WIND PRES REMARKS
 
#BULLFROG 2SW N/A 54 36 50 S2 27.73S  
#BUMPING DAM N/A 52 N/A N/A NE2 N/A  
#CLE ELUM HS N/A 50 38 63 CALM 30.06R  
#CLE ELUM LAKE N/A 67 31 26 CALM 29.95R  
#CLIFFDEL 2NW N/A 51 39 63 CALM N/A  
#EASTON DOT N/A 55 41 59 E1 N/A  
#GLENWOOD N/A 44 40 86 CALM 30.02S  
#MANASTASH CYN N/A 60 33 36 CALM 30.11S  
#NELSON N/A 50 40 68 CALM 30.03S  
#NELSON 3SW N/A 59 33 37 CALM 30.17S  
#PEOH POINT N/A 69 33 26 W7 N/A  
#RONALD 2NW N/A 62 35 36 N1 30.02S  
#SNOWDEN N/A 55 31 40 CALM N/A  
#TEANAWAY 4NE N/A 50 38 63 W2 N/A  
#TROUT LAKE 1NE N/A 53 38 57 NW2 29.99S  

 
 
WAZ521-311410-  
SIMCOE HIGHLANDS  
 
CITY SKY/WX TMP DP RH WIND PRES REMARKS
 
#BICKLETON HS N/A 68 22 17 CALM N/A  
#SATUS PASS DOT N/A 68 33 27 CALM N/A  
#CENTERVILLE 4W N/A 67 42 40 CALM 29.83S  
#CENTERVILLE 1SWN/A 53 35 50 CALM 29.95S  
#GOLDENDALE N/A 60 36 41 E2 N/A  
#GOLDENDALE 1NE N/A 57 24 28 N3 N/A  
#GOLDENDALE 5WNWN/A 57 38 49 CALM 29.95S  
#GOODNOE HILLS N/A 73 46 38 NW8 N/A  
#LYLE 6NE N/A 70 45 41 CALM 29.93S  

 
 
WAZ026-311410-  
KITTITAS VALLEY  
 
CITY SKY/WX TMP DP RH WIND PRES REMARKS
 
ELLENSBURG AP CLEAR 56 42 59 NE3 30.09R  
YTC-OPS AREA N/A 77 25 14 W18 30.11S  
#ELLENSBURG CWU N/A 57 45 64 CALM 29.95R  
#ELLENSBURG 3NE N/A 56 44 64 NE3 30.08S  
#ELLENSBURG 1E N/A 52 43 71 CALM N/A  
#KITTITAS 3S N/A 48 45 89 CALM 30.00R  
#THORP 6N N/A 60 35 39 N7 29.99S  

 
 
WAZ027-311410-  
YAKIMA VALLEY  
 
CITY SKY/WX TMP DP RH WIND PRES REMARKS
 
SUNNYSIDE AP CLEAR 54 48 80 CALM 30.02R  
YAKIMA AIRPORT CLEAR 58 45 62 W7 30.05S  
#DONALD 2NE N/A 71 29 21 CALM 28.87S  
#GRANDVIEW N/A 60 49 67 CALM 29.99R  
#MABTON N/A 58 46 64 CALM 30.01S  
#MOXEE 2E N/A 63 34 34 E3 29.98R  
#NACHES 2SW N/A 68 45 44 W8 30.08S  
#TERRACE HTS N/A 61 47 60 CALM 29.94R  
#TOPPENISH N/A 62 50 65 CALM 29.90R  
#WAPATO 4NE N/A 71 29 21 CALM 28.87S  
#WEST VALLEY N/A 63 46 54 CALM 29.96S  
#W YAKIMA N/A 70 46 42 N2 29.97S  
#WHITE SWAN 5E N/A 56 46 69 CALM 29.98R  
#WILEY CITY 3W N/A 61 36 39 CALM 30.03R  

 
 
WAZ028-311410-  
LOWER COLUMBIA BASIN...WASHINGTON  
 
CITY SKY/WX TMP DP RH WIND PRES REMARKS
 
PASCO CLEAR 55 49 80 CALM 30.00S  
RICHLAND AWOS CLEAR 61 54 78 CALM 30.00S  
#BASIN CITY 5SW N/A 59 44 57 CALM 30.00S  
#BENTON CITY N/A 63 45 52 CALM 29.88R  
#CONNELL 5N N/A 60 31 33 N1 29.96S  
#CONNELL 5NW N/A 60 32 35 NE2 29.93S  
#ELTOPIA 6NW N/A 63 38 39 NE2 28.97S  
#KAHLOTUS N/A 63 28 26 S7 29.96S  
#KENNEWICK N/A 54 36 50 S2 27.73S  
#KENNEWICK 3S N/A 69 38 32 CALM 29.96S  
#PASCO-BROADMOORN/A 63 48 58 NE1 29.88S  
#PATERSON N/A 65 45 48 CALM 29.96R  
#PROSSER DOT N/A 59 52 78 CALM N/A  
#PROSSER N/A 72 38 29 CALM 29.96S  
#SAGEMOOR 2W N/A 62 41 46 CALM 29.81S  
#TOUCHET 2S N/A 49 43 80 CALM 29.96S  
#WEST PASCO N/A 61 48 62 NE1 29.96S  

 
 
WAZ029-311410-  
FOOTHILLS OF THE BLUES...WASHINGTON  
 
CITY SKY/WX TMP DP RH WIND PRES REMARKS
 
WALLA WALLA AP PTCLDY 73 33 23 SE7 30.03R  
#DAYTON SCHOOL N/A 68 27 21 CALM 30.05R  
#LOWDEN 2SE N/A 55 46 72 E2 29.97R  
#PLEASANT VIEW 1N/A 69 29 22 CALM 29.98R  
#PRESCOTT N/A 56 39 53 CALM 29.95R  
#SUDBURY N/A 53 N/A N/A CALM N/A  
#WHITMAN COLLEGEN/A 71 38 30 E2 30.01R  
#WAITSBURG 8N N/A 57 12 16 CALM 29.88S  
#WALLA WALLA U N/A 63 46 54 CALM 29.96S  

 
 
WAZ030-311410-  
BLUE MOUNTAINS...WASHINGTON  
 
CITY SKY/WX TMP DP RH WIND PRES REMARKS
 

 
 
ORZ009-041-WAZ024-311410-  
COLUMBIA RIVER GORGE  
 
CITY SKY/WX TMP DP RH WIND PRES REMARKS
 
HOOD RIVER AP CLEAR 59 46 62 S6 30.04S  
THE DALLES AP CLEAR 66 40 38 E8 30.00R  
#ARLINGTON AIRPON/A 72 44 37 W2 29.78R  
#MARYHILL N/A 73 40 30 CALM N/A  
#MOSIER 1S N/A 66 36 33 CALM 30.05S  
#MURDOCK N/A 71 51 49 NW12 30.00R  
 

 
 
ORZ510-311410-  
NORTH CENTRAL OREGON  
 
CITY SKY/WX TMP DP RH WIND PRES REMARKS
 
#CHENOWITH 1W N/A 68 45 44 NW20 N/A  
#DUFUR 9E N/A 77 41 28 CALM 29.97S  
#GRASS VALLEY 1SN/A 67 38 34 SW6 29.97S  
#MAUPIN SCHOOL N/A 66 40 38 CALM 30.06R  
#MORO SCHOOL N/A 65 44 46 CALM 30.08R  
#SHANIKO 4NW N/A 75 34 22 VRB7 30.19S  
#TYGH VALLEY 2NEN/A 62 39 43 CALM 29.98S  
#WAPANITIA AIRPON/A 63 40 43 CALM 29.98R  
#WASCO 5NE N/A 68 43 40 CALM 29.95R  

 
 
ORZ511-311410-  
CENTRAL OREGON  
 
CITY SKY/WX TMP DP RH WIND PRES REMARKS
 
BEND AIRPORT CLEAR 63 37 38 SW7 30.19S  
MADRAS AIRPORT PTCLDY 59 41 51 SE8 30.14S  
PRINEVILLE AP PTCLDY 54 32 43 CALM 30.18R  
REDMOND AIRPORT PTCLDY 58 36 44 S5 30.17R  
#BEND 1SW N/A 57 39 51 W1 N/A  
#BEND-AWBREY N/A 69 38 32 CALM 29.95R  
#BEND-KIM LN N/A 65 42 43 SW6 30.17R  
#CULVER N/A 61 43 51 CALM 30.10R  
#LAKE BILLY CHINN/A 66 3 8 CALM 30.17R  
#POWELL BUTTE 3EN/A 60 32 35 SE3 N/A  
#POWELL BUTTE N/A 63 34 34 S1 29.80S  
#PRINEVILLE 3N N/A 52 44 74 CALM 29.96R  
#WARM SPRINGS N/A 62 40 44 CALM 30.06R  
 

 
 
 
ORZ509-311410-  
EAST SLOPES OF OREGON CASCADES  
 
CITY SKY/WX TMP DP RH WIND PRES REMARKS
 
#CAMP SHERMAN N/A 47 35 63 CALM 30.03R  
#LA PINE 4NW N/A 43 35 73 CALM 30.06S  
#SISTERS AIRPOR N/A 53 41 64 CALM 30.17S  
#SISTERS 3N N/A 51 32 48 CALM 30.34S  
#SUNRIVER N/A 50 43 77 CALM 29.90S  
#WANOGA BUTTE D N/A 68 27 21 CALM N/A  
 

 
 
ORZ044-311410-  
LOWER COLUMBIA BASIN...OREGON  
 
CITY SKY/WX TMP DP RH WIND PRES REMARKS
 
HERMISTON CLEAR 58 42 55 CALM 30.00R  
#BOARDMAN SCHOOLN/A 58 49 72 CALM 30.01R  
#BOARDMAN 8SW N/A 66 41 40 CALM 29.96R  
#ECHO 8SW N/A 63 39 41 CALM 30.01R  
#IONE SCHOOL N/A 65 36 34 CALM 30.00R  
#IRRIGON 4NW N/A 59 55 87 NE1 N/A  
#UMATILLA N/A 61 44 53 CALM 29.91S  

 
 
ORZ507-311410-  
NORTHERN FOOTHILLS OF THE BLUES  
 
CITY SKY/WX TMP DP RH WIND PRES REMARKS
 
PENDLETON AIRPT CLEAR 66 32 28 E7 30.05R  
#ADAMS 3WNW N/A 62 32 32 CALM 29.97R  
#ATHENA N/A 57 34 42 CALM 29.99R  
#CAYUSE N/A 69 39 33 E8 29.95R  
#HELIX SCHOOL N/A 58 32 37 CALM 29.97R  
#HELIX 3N N/A 69 31 24 N2 30.03S  
#HOLDMAN 5SE N/A 64 34 33 CALM 30.04R  
#HOLDMAN 6E N/A 58 33 39 SE1 29.78S  
#M-F GROVE ELEM N/A 67 32 27 CALM 30.02R  
#M-FREEWATER 5SEN/A 69 36 30 CALM 30.03R  
#PENDLETON DNTN N/A 60 33 36 CALM 30.25R  
#PDT AQUATIC CTRN/A 60 32 35 E1 30.03R  
#PDT SUNRIDGE N/A 57 35 43 CALM 30.05R  
#PENDLETON 7NW N/A 59 35 40 CALM 31.36S  
#PILOT ROCK N/A 66 31 27 S2 30.08R  
#TUTUILLA N/A 54 38 55 CALM 30.00R  
#UMAPINE 2E N/A 55 44 66 CALM 29.98R  
#WESTON SCHOOL N/A 72 25 17 SW1 29.94R  
 

 
 
ORZ508-311410-  
SOUTHERN FOOTHILLS OF THE BLUES  
 
CITY SKY/WX TMP DP RH WIND PRES REMARKS
 
#CONDON SCHOOL N/A 69 35 28 CALM 30.09R  
#CONDON 5W N/A 75 38 26 NW7 30.13R  
#FOSSIL SCHOOL N/A 60 33 36 CALM 30.09R  
#HEPPNER EOC N/A 67 32 27 E2 29.90R  
#HEPPNER 4NE N/A 71 36 28 S2 29.94S  
#LEXINGTON 2SE N/A 70 34 26 SE10 30.04R  
#OLEX 4N N/A 69 39 33 SW2 30.00R  
#RUGGS 5NE N/A 65 2 8 E1 30.30S  
#RUGGS 2SW N/A 72 32 23 SW7 29.96S  
 

 
 
ORZ502-503-311410-  
BLUE MOUNTAINS  
 
CITY SKY/WX TMP DP RH WIND PRES REMARKS
 
MEACHAM PTCLDY 45 37 73 CALM 30.21S  
#HEPPNER 15SE N/A 61 35 38 CALM 30.14S  
#LONG CREEK HS N/A 59 38 45 CALM 30.17R  
#PIKES PEAK N/A 82 31 16 CALM 27.99S  
#TOLLGATE N/A 62 33 34 CALM 30.12S  
#TROY SCHOOL N/A 58 41 53 CALM 29.90R  
#UKIAH N/A 46 38 73 CALM 30.09S  

 
 
ORZ505-311410-  
JOHN DAY BASIN  
 
CITY SKY/WX TMP DP RH WIND PRES REMARKS
 
JOHN DAY CLEAR 61 31 32 SE6 30.22R  
#JOHN DAY KJDY N/A 53 47 80 NE1 30.24R  
#DAYVILLE SCHOOLN/A 59 31 34 CALM 30.14R  
#MITCHELL N/A 62 39 43 E2 30.31S  
#MONUMENT HS N/A 56 39 53 CALM 30.14R  
#MT. VERNON 5SE N/A 64 29 27 CALM 30.19R  
#WINLOCK N/A 63 33 32 CALM 30.23R  

 
 
ORZ506-311410-  
OCHOCO AND JOHN DAY HIGHLANDS  
 
CITY SKY/WX TMP DP RH WIND PRES REMARKS
 
#PAULINA SCHOOL N/A 46 38 73 CALM 30.16S  
#PINE MTN OBS N/A 66 33 29 N2 N/A  
#PRAIRIE CITY N/A 48 38 68 CALM 30.26R  
#SENECA N/A 43 N/A N/A CALM N/A  
#SENECA 9NW N/A 41 29 62 CALM 30.05R  

 
 
ORZ049-311410-  
GRANDE RONDE VALLEY  
 
CITY SKY/WX TMP DP RH WIND PRES REMARKS
 
LA GRANDE PTCLDY 54 32 43 CALM 30.18R  
#COVE N/A 56 45 66 NE2 30.19R  
#COVE SCHOOL N/A 55 42 61 CALM 30.19R  
#COVE 6NW N/A 50 41 71 CALM 30.09R  
#ELGIN 3N N/A 51 35 54 CALM 30.15R  
#ELGIN 1E N/A 52 37 56 CALM N/A  
#IMBLER SCHOOL N/A 52 38 59 NE1 30.11S  
#ISLAND CITY 4N N/A 60 49 67 CALM 30.02R  
#LA GRANDE ELEM N/A 59 41 51 CALM 30.18R  
#UNION 1S N/A 54 41 61 CALM 29.95R  

 
 
ORZ050-311410-  
WALLOWA COUNTY  
 
CITY SKY/WX TMP DP RH WIND PRES REMARKS
 
#ENTERPRISE HS N/A 49 41 74 CALM 30.22R  
#IMNAHA SCHOOL N/A 60 39 46 S2 30.14R  
#IMNAHA 10S N/A 63 36 36 SW5 30.17R  
#JOSEPH 3N N/A 47 36 65 NE7 30.23R  
#JOSEPH 3W N/A 67 35 30 SW1 30.08S  
#LOSTINE N/A 49 41 74 CALM 29.86R  
#MT HOWARD 8000 N/A 64 26 23 SW1 30.53S  
#PROMISE 1S N/A 59 37 44 CALM 30.09R  
#WALLOWA SCHOOL N/A 48 43 83 CALM 30.16R  
 

 
 
CLICK HERE TO GO TO PREVIOUS BULLETINS.

The Nexlab OR Page
The Nexlab WA Page Main Text Page